TimeMDT,TemperatureF,Dew PointF,Humidity,Sea Level PressureIn,VisibilityMPH,Wind Direction,Wind SpeedMPH,Gust SpeedMPH,PrecipitationIn,Events,Conditions,WindDirDegrees,DateUTC
12:33 AM,55.4,53.6,94,30.08,2.5,SSE,21.9,29.9,N/A,,Overcast,150,2013-05-24 06:33:00
12:50 AM,53.6,53.6,100,30.07,1.8,SSE,17.3,28.8,0.00,Rain,Light Rain,160,2013-05-24 06:50:00
12:53 AM,54.0,53.1,97,30.00,2.0,SSE,18.4,28.8,0.00,Rain,Light Rain,160,2013-05-24 06:53:00
1:53 AM,55.0,53.1,93,29.97,2.5,SSE,23.0,29.9,0.00,Rain,Light Rain,160,2013-05-24 07:53:00
2:05 AM,55.4,53.6,94,30.05,4.0,SSE,19.6,31.1,0.00,Rain,Light Rain,160,2013-05-24 08:05:00
2:22 AM,53.6,53.6,100,30.04,2.0,SSE,21.9,28.8,0.00,Rain,Light Rain,160,2013-05-24 08:22:00
2:53 AM,54.0,53.1,97,29.95,2.0,SSE,20.7,-,0.00,,Overcast,160,2013-05-24 08:53:00
3:17 AM,53.6,53.6,100,30.03,1.8,SSE,17.3,-,0.01,Rain,Light Rain,160,2013-05-24 09:17:00
3:25 AM,53.6,53.6,100,30.02,2.0,SSE,20.7,-,0.01,Rain,Light Rain,150,2013-05-24 09:25:00
3:53 AM,54.0,54.0,100,29.94,2.0,SSE,16.1,-,0.01,,Overcast,150,2013-05-24 09:53:00
4:07 AM,53.6,53.6,100,30.02,1.8,SSE,17.3,-,N/A,,Overcast,150,2013-05-24 10:07:00
4:14 AM,55.4,53.6,94,30.02,2.0,SSE,17.3,23.0,N/A,,Overcast,150,2013-05-24 10:14:00
4:53 AM,55.0,54.0,96,29.92,2.0,SSE,15.0,-,N/A,,Overcast,150,2013-05-24 10:53:00
5:24 AM,55.4,53.6,94,30.01,3.0,SSE,12.7,-,N/A,,Overcast,150,2013-05-24 11:24:00
5:53 AM,55.0,54.0,96,29.92,3.0,SE,13.8,-,N/A,,Overcast,140,2013-05-24 11:53:00
6:07 AM,55.4,53.6,94,30.03,2.5,SE,11.5,-,N/A,,Overcast,140,2013-05-24 12:07:00
6:53 AM,55.9,55.0,97,29.92,2.5,SSE,19.6,-,N/A,,Scattered Clouds,150,2013-05-24 12:53:00
7:04 AM,55.4,55.4,100,30.02,3.0,SSE,18.4,-,N/A,,Mostly Cloudy,150,2013-05-24 13:04:00
7:36 AM,57.2,55.4,94,30.02,5.0,SSE,17.3,21.9,N/A,,Mostly Cloudy,150,2013-05-24 13:36:00
7:53 AM,57.9,55.0,90,29.93,7.0,SE,15.0,-,N/A,,Mostly Cloudy,140,2013-05-24 13:53:00
8:20 AM,60.8,55.4,82,30.03,8.0,SSE,13.8,-,N/A,,Mostly Cloudy,150,2013-05-24 14:20:00
8:34 AM,60.8,55.4,82,30.03,9.0,SSE,18.4,-,N/A,,Mostly Cloudy,150,2013-05-24 14:34:00
8:53 AM,61.0,55.0,81,29.93,10.0,South,15.0,23.0,N/A,,Mostly Cloudy,170,2013-05-24 14:53:00
9:37 AM,64.4,55.4,73,30.02,10.0,South,15.0,21.9,N/A,,Scattered Clouds,170,2013-05-24 15:37:00
9:53 AM,66.0,55.0,68,29.90,10.0,South,15.0,24.2,N/A,,Clear,180,2013-05-24 15:53:00
10:53 AM,72.0,53.1,51,29.88,10.0,South,16.1,-,N/A,,Clear,190,2013-05-24 16:53:00
11:53 AM,77.0,53.1,43,29.85,10.0,South,12.7,25.3,N/A,,Clear,180,2013-05-24 17:53:00
12:53 PM,81.0,46.9,30,29.82,10.0,South,9.2,25.3,N/A,,Clear,190,2013-05-24 18:53:00
1:53 PM,84.0,39.9,21,29.79,10.0,SSW,10.4,25.3,N/A,,Clear,200,2013-05-24 19:53:00
2:53 PM,88.0,28.0,12,29.76,10.0,SW,20.7,26.5,N/A,,Clear,220,2013-05-24 20:53:00
3:53 PM,88.0,21.0,9,29.74,10.0,South,17.3,28.8,N/A,,Clear,190,2013-05-24 21:53:00
4:40 PM,87.8,33.8,15,29.90,10.0,WNW,8.1,26.5,N/A,,Clear,290,2013-05-24 22:40:00
4:53 PM,86.0,35.1,16,29.72,10.0,Variable,4.6,-,N/A,,Clear,0,2013-05-24 22:53:00
5:53 PM,82.0,50.0,33,29.71,10.0,NE,11.5,-,N/A,,Clear,40,2013-05-24 23:53:00
6:53 PM,73.9,57.0,55,29.74,10.0,NE,12.7,23.0,N/A,,Clear,50,2013-05-25 00:53:00
7:53 PM,68.0,57.0,68,29.75,10.0,NNE,10.4,-,N/A,,Clear,30,2013-05-25 01:53:00
8:53 PM,64.0,55.9,75,29.76,10.0,North,10.4,-,N/A,,Clear,10,2013-05-25 02:53:00
9:53 PM,60.1,54.0,80,29.76,10.0,East,10.4,-,N/A,,Clear,80,2013-05-25 03:53:00
10:53 PM,61.0,51.1,70,29.74,10.0,SSE,6.9,-,N/A,,Clear,150,2013-05-25 04:53:00
11:53 PM,62.1,44.1,52,29.74,10.0,SE,9.2,-,N/A,,Clear,130,2013-05-25 05:53:00